Location: McCall
(45.0000°N, 116.0000°W)
Time: 13:57:29
(UTC-07:00)

Saudisat 1A - Visible Passes

Search period start: 20 January 2018 00:00
Search period end: 30 January 2018 00:00
Orbit: 590 x 601 km, 64.6° (Epoch: 20 January)

Date Brightness Start Highest point End Pass type
(mag) Time Alt. Az. Time Alt. Az. Time Alt. Az.
20 Jan 8.6 18:43:48 10° S 18:47:52 38° ESE 18:50:26 20° ENE visible
20 Jan 9.7 20:23:28 10° WSW 20:27:07 30° NW 20:27:07 30° NW visible
21 Jan 8.0 18:53:14 10° SSW 18:57:34 67° ESE 19:00:35 20° NE visible
21 Jan 10.2 20:34:06 10° W 20:37:16 20° NW 20:37:16 20° NW visible
22 Jan 8.2 19:03:00 10° SW 19:07:23 71° NW 19:10:39 18° NNE visible
22 Jan 10.6 20:45:07 10° WNW 20:47:19 15° NW 20:47:19 15° NW visible
23 Jan 9.0 19:13:05 10° WSW 19:17:17 43° NW 19:20:37 15° NNE visible
23 Jan 11.0 20:56:49 10° NW 20:57:18 10° NNW 20:57:18 10° NNW visible
24 Jan 9.8 19:23:29 10° WSW 19:27:16 28° NW 19:30:33 13° NNE visible
25 Jan 10.3 19:34:11 10° W 19:37:22 19° NW 19:40:24 11° N visible
26 Jan 10.6 19:45:17 10° WNW 19:47:33 14° NNW 19:49:49 10° N visible
27 Jan 9.2 18:13:04 10° WSW 18:17:11 39° NW 18:21:20 10° NNE visible
27 Jan 10.8 19:57:32 10° NNW 19:57:49 10° NNW 19:58:06 10° NNW visible
28 Jan 9.8 18:23:30 10° W 18:27:12 26° NW 18:30:54 10° NNE visible
29 Jan 10.3 18:34:16 10° W 18:37:18 18° NW 18:40:21 10° N visible
